VIV1069 MMGL-MMMX

Flight info

Callsign VIV1069
Flight time N/A
Altitude 37000
Route EMIRI1B EMIRI UT119 ESPOS ESPOS3A
Aircraft A320/M-SDE3FGHIRWY/LB1

Departure

Time 2026-05-06 03:43
Airport Guadalajara International Airport (MMGL)

Arrival

Time N/A
Airport Mexico City Benito Juárez International Airport (MMMX)
Time Latitude Longitude Altitude Speed Heading
2026-05-06 03:09 20.52371 -103.30326 4992 ft 0 kts 199°
2026-05-06 03:32 20.52388 -103.30320 5025 ft 4 kts 194°
2026-05-06 03:32 20.52414 -103.30315 5027 ft 4 kts 175°
2026-05-06 03:32 20.52437 -103.30323 5025 ft 4 kts 122°
2026-05-06 03:33 20.52442 -103.30333 5025 ft 1 kts 109°
2026-05-06 03:37 20.52442 -103.30332 5029 ft 1 kts 109°
2026-05-06 03:38 20.52435 -103.30310 5026 ft 4 kts 109°
2026-05-06 03:38 20.52424 -103.30276 5029 ft 6 kts 109°
2026-05-06 03:38 20.52409 -103.30231 5029 ft 7 kts 109°
2026-05-06 03:38 20.52378 -103.30212 5029 ft 6 kts 198°
2026-05-06 03:39 20.52324 -103.30237 5029 ft 10 kts 204°
2026-05-06 03:39 20.52256 -103.30239 5029 ft 11 kts 139°
2026-05-06 03:39 20.52217 -103.30149 5029 ft 14 kts 112°
2026-05-06 03:39 20.52177 -103.30047 5025 ft 16 kts 114°
2026-05-06 03:40 20.52129 -103.29938 5026 ft 17 kts 116°
2026-05-06 03:40 20.52080 -103.29822 5029 ft 18 kts 114°
2026-05-06 03:40 20.52028 -103.29698 5029 ft 19 kts 114°
2026-05-06 03:40 20.51988 -103.29602 5029 ft 12 kts 114°
2026-05-06 03:41 20.51947 -103.29532 5030 ft 9 kts 156°
2026-05-06 03:41 20.51886 -103.29549 5030 ft 10 kts 201°
2026-05-06 03:41 20.51821 -103.29586 5030 ft 11 kts 222°
2026-05-06 03:41 20.51833 -103.29646 5029 ft 0 kts 292°
2026-05-06 03:42 20.51865 -103.29733 5029 ft 44 kts 291°
2026-05-06 03:42 20.52083 -103.30251 5027 ft 108 kts 294°
2026-05-06 03:42 20.52466 -103.31161 5028 ft 156 kts 294°
2026-05-06 03:43 20.52962 -103.32279 5425 ft 171 kts 298°
2026-05-06 03:43 20.53514 -103.33395 6160 ft 170 kts 294°
2026-05-06 03:43 20.53990 -103.34607 6503 ft 186 kts 292°
2026-05-06 03:43 20.54503 -103.35969 6657 ft 208 kts 291°
2026-05-06 03:44 20.55073 -103.37474 6840 ft 227 kts 290°
2026-05-06 03:44 20.55694 -103.39090 7248 ft 240 kts 291°
2026-05-06 03:44 20.56341 -103.40742 7981 ft 242 kts 292°
2026-05-06 03:44 20.56966 -103.42439 8538 ft 255 kts 284°
2026-05-06 03:45 20.56965 -103.44397 8860 ft 277 kts 254°
2026-05-06 03:45 20.55962 -103.46173 9448 ft 289 kts 223°
2026-05-06 03:45 20.54196 -103.47171 10127 ft 299 kts 194°
2026-05-06 03:45 20.52045 -103.47133 10330 ft 326 kts 165°
2026-05-06 03:46 20.49982 -103.45946 10472 ft 352 kts 142°
2026-05-06 03:46 20.48243 -103.44037 10856 ft 364 kts 130°
2026-05-06 03:46 20.46744 -103.41840 11482 ft 367 kts 125°
2026-05-06 03:46 20.45325 -103.39580 12179 ft 367 kts 125°
2026-05-06 03:47 20.43875 -103.37343 12883 ft 367 kts 127°
2026-05-06 03:47 20.42351 -103.35151 13529 ft 367 kts 129°
2026-05-06 03:47 20.40764 -103.33018 14175 ft 368 kts 130°
2026-05-06 03:47 20.39125 -103.30914 14705 ft 370 kts 131°
2026-05-06 03:48 20.37466 -103.28829 15193 ft 373 kts 132°
2026-05-06 03:48 20.35773 -103.26713 15702 ft 377 kts 132°
2026-05-06 03:48 20.34065 -103.24563 16210 ft 381 kts 132°
2026-05-06 03:48 20.32351 -103.22389 16723 ft 385 kts 131°
2026-05-06 03:49 20.30648 -103.20215 17248 ft 387 kts 131°
2026-05-06 03:49 20.28915 -103.17995 17774 ft 390 kts 132°
2026-05-06 03:49 20.27166 -103.15757 18287 ft 393 kts 132°
2026-05-06 03:49 20.25406 -103.13506 18735 ft 396 kts 132°
2026-05-06 03:50 20.23636 -103.11244 19196 ft 398 kts 132°
2026-05-06 03:50 20.21878 -103.09001 19675 ft 400 kts 132°
2026-05-06 03:50 20.20088 -103.06719 20167 ft 401 kts 132°
2026-05-06 03:50 20.18293 -103.04430 20667 ft 403 kts 132°
2026-05-06 03:51 20.16484 -103.02128 21145 ft 405 kts 133°
2026-05-06 03:51 20.14663 -102.99811 21608 ft 407 kts 133°
2026-05-06 03:51 20.12841 -102.97492 21947 ft 410 kts 133°
2026-05-06 03:51 20.11030 -102.95190 22390 ft 411 kts 133°
2026-05-06 03:52 20.09163 -102.92821 22835 ft 413 kts 133°
2026-05-06 03:52 20.07337 -102.90506 23131 ft 415 kts 133°
2026-05-06 03:52 20.05481 -102.88147 23582 ft 416 kts 133°
2026-05-06 03:52 20.03613 -102.85771 23921 ft 419 kts 133°
2026-05-06 03:53 20.01738 -102.83385 24239 ft 421 kts 133°
2026-05-06 03:53 19.99848 -102.80984 24565 ft 424 kts 133°
2026-05-06 03:53 19.97943 -102.78573 24877 ft 427 kts 133°
2026-05-06 03:53 19.96023 -102.76146 25181 ft 430 kts 133°
2026-05-06 03:54 19.94744 -102.74530 25392 ft 432 kts 133°
2026-05-06 03:54 19.92142 -102.71237 25802 ft 436 kts 133°
2026-05-06 03:54 19.90205 -102.68778 26114 ft 439 kts 133°
2026-05-06 03:54 19.88238 -102.66281 26432 ft 442 kts 133°
2026-05-06 03:55 19.86255 -102.63769 26735 ft 445 kts 133°
2026-05-06 03:55 19.84932 -102.62098 26942 ft 447 kts 133°
2026-05-06 03:55 19.82919 -102.59554 27238 ft 450 kts 133°
2026-05-06 03:55 19.80507 -102.55933 27629 ft 458 kts 122°
2026-05-06 03:56 19.79539 -102.53877 27817 ft 462 kts 116°
2026-05-06 03:56 19.77933 -102.49661 28218 ft 466 kts 115°
2026-05-06 03:56 19.77125 -102.47536 28421 ft 468 kts 115°
2026-05-06 03:56 19.75893 -102.44318 28732 ft 471 kts 115°
2026-05-06 03:57 19.74650 -102.41081 29053 ft 475 kts 115°
2026-05-06 03:57 19.73401 -102.37829 29454 ft 475 kts 115°
2026-05-06 03:57 19.72153 -102.34582 29935 ft 475 kts 115°
2026-05-06 03:57 19.70908 -102.31336 30355 ft 475 kts 114°
2026-05-06 03:58 19.69665 -102.28093 30749 ft 475 kts 114°
2026-05-06 03:58 19.68418 -102.24848 31137 ft 475 kts 114°
2026-05-06 03:58 19.67168 -102.21599 31532 ft 475 kts 114°
2026-05-06 03:58 19.65917 -102.18354 31924 ft 475 kts 114°
2026-05-06 03:59 19.64661 -102.15103 32335 ft 475 kts 114°
2026-05-06 03:59 19.63407 -102.11859 32751 ft 475 kts 114°
2026-05-06 03:59 19.62169 -102.08655 33187 ft 475 kts 114°
2026-05-06 03:59 19.60913 -102.05403 33595 ft 475 kts 114°
2026-05-06 04:00 19.59661 -102.02159 34023 ft 475 kts 114°
2026-05-06 04:00 19.58412 -101.98919 34403 ft 475 kts 114°
2026-05-06 04:00 19.57160 -101.95675 34818 ft 474 kts 114°
2026-05-06 04:00 19.55913 -101.92446 35245 ft 472 kts 114°
2026-05-06 04:01 19.54669 -101.89231 35670 ft 470 kts 114°
2026-05-06 04:01 19.53432 -101.86033 36101 ft 468 kts 114°
2026-05-06 04:01 19.52197 -101.82846 36536 ft 466 kts 114°
2026-05-06 04:01 19.50981 -101.79715 36904 ft 465 kts 114°
2026-05-06 04:02 19.49749 -101.76549 37006 ft 465 kts 114°
2026-05-06 04:02 19.48510 -101.73375 37023 ft 466 kts 114°
2026-05-06 04:02 19.46034 -101.67011 37015 ft 466 kts 114°
2026-05-06 04:03 19.43579 -101.60690 37011 ft 466 kts 114°
2026-05-06 04:03 19.41101 -101.54327 37005 ft 466 kts 114°
2026-05-06 04:04 19.38631 -101.48003 36999 ft 466 kts 114°
2026-05-06 04:04 19.36147 -101.41647 36991 ft 466 kts 114°
2026-05-06 04:05 19.33670 -101.35321 36979 ft 467 kts 114°
2026-05-06 04:05 19.31184 -101.28971 36970 ft 467 kts 114°
2026-05-06 04:06 19.28696 -101.22615 36954 ft 467 kts 114°
2026-05-06 04:06 19.26207 -101.16264 36943 ft 466 kts 114°
2026-05-06 04:07 19.23714 -101.09923 36925 ft 466 kts 114°
2026-05-06 04:07 19.21230 -101.03602 36912 ft 467 kts 114°
2026-05-06 04:08 19.18736 -100.97266 36896 ft 466 kts 114°
2026-05-06 04:08 19.16231 -100.90922 36888 ft 466 kts 114°
2026-05-06 04:09 19.13741 -100.84621 36876 ft 466 kts 114°
2026-05-06 04:09 19.11238 -100.78288 36869 ft 466 kts 114°
2026-05-06 04:10 19.08731 -100.71960 36855 ft 466 kts 114°
2026-05-06 04:10 19.06234 -100.65669 36859 ft 466 kts 114°
2026-05-06 04:11 19.03731 -100.59350 36857 ft 466 kts 114°
2026-05-06 04:11 19.01225 -100.53028 36861 ft 466 kts 114°
2026-05-06 04:12 18.98709 -100.46707 36869 ft 466 kts 114°
2026-05-06 04:12 18.96196 -100.40384 36880 ft 466 kts 114°
2026-05-06 04:13 18.93691 -100.34096 36893 ft 466 kts 114°
2026-05-06 04:13 18.91174 -100.27773 36906 ft 466 kts 114°
2026-05-06 04:14 18.88673 -100.21505 36918 ft 466 kts 114°
2026-05-06 04:14 18.86145 -100.15194 36927 ft 466 kts 114°
2026-05-06 04:15 18.83610 -100.08884 36935 ft 466 kts 114°
2026-05-06 04:15 18.81097 -100.02621 36946 ft 465 kts 114°
2026-05-06 04:16 18.78567 -99.96307 36943 ft 465 kts 114°
2026-05-06 04:16 18.76060 -99.90049 36942 ft 465 kts 112°
2026-05-06 04:17 18.74734 -99.83396 36936 ft 466 kts 91°
2026-05-06 04:17 18.75719 -99.76667 36935 ft 466 kts 70°
2026-05-06 04:18 18.78303 -99.70426 36925 ft 467 kts 66°
2026-05-06 04:18 18.80961 -99.64166 36934 ft 467 kts 66°
2026-05-06 04:19 18.83611 -99.57900 36934 ft 467 kts 66°
2026-05-06 04:19 18.86262 -99.51634 36935 ft 467 kts 66°
2026-05-06 04:20 18.88897 -99.45410 36929 ft 467 kts 66°
2026-05-06 04:20 18.91551 -99.39144 36928 ft 466 kts 66°
2026-05-06 04:21 18.94199 -99.32870 36928 ft 466 kts 66°
2026-05-06 04:21 18.95986 -99.26402 36929 ft 463 kts 93°
2026-05-06 04:22 18.95397 -99.23116 36910 ft 450 kts 112°
2026-05-06 04:22 18.94995 -99.22088 36869 ft 446 kts 117°
2026-05-06 04:22 18.92037 -99.17591 36318 ft 427 kts 133°